星链-31713 (STARLINK-31713 )

导读

STARLINK-31713是美国于北京时间2024年4月2日8点发射的星链系列卫星,星链是SpaceX打造的低轨卫星互联网星座项目,该卫星主要为全球偏远地区、地面通信基础设施损毁区域等提供高速互联网接入服务,进一步扩充了星链星座的卫星规模,提升星座的网络覆盖能力与服务稳定性。

Basic Information
目录编号:
59381
目录名称:
STARLINK-31713
国际标识:
2024-062H
轨道中心:
EARTH
卫星名称:
星链-31713
卫星全名:
星链-31713 (STARLINK-31713 )
卫星状态:
在轨 (已飞行893 天)
发射日期:
2024-04-02 UTC
国别 :
美国 (US)
星等 :
--
This satellite is enrolled in the Space Conjunction Data Service (SCDS) and the current flight risk assessment level is: No High Risk
Orbit Information
数据来源 国际轨道数据 AOE轨道数据
星历时间 2026-09-12T04:58:32+0800
7小时前
查看轨道信息
2026-09-10T21:00:00+0800
1天前
查看轨道信息
半长轴 6840.807km 6840.82km
偏心率 0.0001231 0.000118
轨道倾角 53.159° 53.157°
近地点辐角 94.029° 68.647°
升交点赤经 109.691° 115.919°
平近点角 266.085° 127.801°
近地点 461.827km 461.875km
远地点 463.513km 463.491km
周期 93.847分钟 93.847分钟
每日圈数 15.344112 15.34407
Detailed Information
固有亮度:
5
最大亮度:
0.3
卫星平台:
Starlink v2.0 mini
覆盖范围:
全球
运营商:
太空探索技术公司
运营商所在国:
美国
制造商(研发单位):
太空探索技术公司
制造商所在国:
美国
使用方式:
暂无
Satellite Introduction
星链(Starlink)计划是由太空探索技术公司(SpaceX)提出的一个巨型低轨卫星互联网星座项目,计划在2019年至2024年间在太空搭建由约1.2万颗卫星组成的“星链”网络,其中1584颗将部署在地球上空550千米处的近地轨道,并从2020年开始工作。该卫星仍在工作。
2D Orbit Map
3D Orbit Map
Orbit Altitude Analysis Chart
Orbit Inclination Analysis Chart
Orbit Comprehensive Analysis Chart
View Comprehensive Chart
Conjunction Data List
Event ID Objects TCA Miss Dist (km) Collision Risk Probability Collision Risk Index (CRI) Action
CDM_260912-185504-623205-938122
2026-09-12T
18:55:57+0000
0.740 km
远距离
7.230527E-5 中风险 0.72
CDM_260913-234005-938106-805221
2026-09-13T
23:40:56+0000
0.780 km
远距离
5.307515E-5 中风险 0.69
CDM_260913-223805-703105-938121
2026-09-13T
22:38:13+0000
0.893 km
远距离
3.252693E-5 中风险 0.65
CDM_260912-230305-938105-968021
OBJECT D (59680)
2026-09-12T
23:03:34+0000
1.743 km
极远距离
3.985163E-6 低风险 0.47
CDM_260913-115705-938106-805221
2026-09-13T
11:57:32+0000
1.954 km
极远距离
2.642286E-6 低风险 0.43
CDM_260913-133105-938106-805221
2026-09-13T
13:31:19+0000
2.492 km
极远距离
1.548213E-6 低风险 0.39
CDM_260913-091105-892705-938121
OBJECT L (58927)
2026-09-13T
09:11:40+0000
2.756 km
极远距离
1.451873E-6 低风险 0.38
Miss Distance Evolution Trend with All Objects
Collision Probability Evolution Trend with All Objects